This is the latest recevied weather packets stored in our database for station/object DC9VQ-13. If no packets are shown the sender has not sent any weather packets the latest 10 day(s).
| Time | Temp. | Humidity | Pressure | Rain* | Wind** | Luminosity | Snow |
|---|---|---|---|---|---|---|---|
| 1777492033 | 13.33° C | 38% | 1026.3 hPa | 0 mm | - | - | - |
| 1777491431 | 13.89° C | 38% | 1026.1 hPa | 0 mm | - | - | - |
| 1777490829 | 14.44° C | 37% | 1026 hPa | 0 mm | - | - | - |
| 1777490228 | 14.44° C | 38% | 1025.8 hPa | 0 mm | - | - | - |
| 1777489625 | 15° C | 37% | 1025.6 hPa | 0 mm | - | - | - |
| 1777489023 | 15.56° C | 36% | 1025.4 hPa | 0 mm | - | - | - |
| 1777488421 | 16.11° C | 36% | 1025.3 hPa | 0 mm | - | - | - |
| 1777487819 | 16.67° C | 35% | 1025.2 hPa | 0 mm | - | - | - |
| 1777487217 | 17.22° C | 35% | 1024.8 hPa | 0 mm | - | - | - |
| 1777486615 | 17.78° C | 35% | 1024.6 hPa | 0 mm | - | - | - |
| 1777486013 | 18.33° C | 34% | 1024.4 hPa | 0 mm | - | - | - |
| 1777485411 | 18.89° C | 34% | 1024.4 hPa | 0 mm | - | - | - |
| 1777484809 | 19.44° C | 33% | 1024.3 hPa | 0 mm | - | - | - |
| 1777484207 | 20° C | 33% | 1024.2 hPa | 0 mm | - | - | - |
| 1777483605 | 20.56° C | 32% | 1024.1 hPa | 0 mm | - | - | - |
| 1777483003 | 20.56° C | 32% | 1024.1 hPa | 0 mm | - | - | - |
| 1777482400 | 21.11° C | 31% | 1024 hPa | 0 mm | - | - | - |
| 1777481799 | 21.67° C | 31% | 1024 hPa | 0 mm | - | - | - |
| 1777481197 | 22.22° C | 30% | 1024 hPa | 0 mm | - | - | - |
| 1777480595 | 22.22° C | 30% | 1023.9 hPa | 0 mm | - | - | - |
| 1777479993 | 22.78° C | 30% | 1023.8 hPa | 0 mm | - | - | - |
| 1777479392 | 22.78° C | 29% | 1023.8 hPa | 0 mm | - | - | - |
| 1777478788 | 22.78° C | 29% | 1023.7 hPa | 0 mm | - | - | - |
| 1777478187 | 22.78° C | 30% | 1023.7 hPa | 0 mm | - | - | - |
| 1777477585 | 22.78° C | 28% | 1023.7 hPa | 0 mm | - | - | - |
* Rain latest hour (hover to see other rain measurements)
** Current wind speed in m/s (hover to see current wind gust speed)